Flag for Switzerland Weather past 2 weeks in Bülach, Zurich, Switzerland

Now
61 °F

Partly sunny.


Feels Like: 61 °F
Forecast: 45 / 64 °F
Wind: 6 mph from West

Location: Zurich-Kloten

Current Time: Sep 4, 2015 at 9:20:24 PM

Latest Report: Sep 4, 2015 at 8:00 PM


Visibility: 19 mi

Pressure: 29.95 "Hg

Humidity: 54%

Dew point: 44 °F

Location of BülachLocation

Historic Weather in Bülach — Graph

°F

Bülach temperature yesterday

Maximum temperature yesterday: 66 °F (at 5:00 PM)
Minimum temperature yesterday: 55 °F (at 7:00 AM)
Average temperature yesterday: 61 °F

Past Weeks' High & Low Weather Summary

 TemperatureHumidityPressure
High91 °F (Aug 30, 4:00 PM)100% (Aug 21, 8:00 AM)30.28 "Hg (Aug 21, 8:00 AM)
Low47 °F (Aug 26, 5:00 AM)24% (Aug 30, 3:00 PM)29.70 "Hg (Aug 24, 8:00 AM)
Average67 °F69%30.00 "Hg
* Reported Aug 20 8:00 PM — Sep 4 8:00 PM, Bülach, Weather by CustomWeather, © 2015

Note: Actual official high and low records may vary slightly from our data, if they occured in-between our weather recording intervals... More about our weather records

Advertising

Bülach weather history for previous 24 hours

 ConditionsComfort  
Time TempWeatherWind HumidityBarometerVisibility
8:00 PM
Fri, Sep 4
61 °FPartly sunny.6 mph54%29.95 "Hg19 mi
7:00 PM65 °FMild.8 mph47%29.94 "HgN/A
6:00 PM67 °FMild.8 mph47%29.93 "HgN/A
5:00 PM66 °FScattered clouds.7 mph47%29.93 "Hg19 mi
4:00 PM67 °FMild.6 mph45%29.95 "HgN/A
3:00 PM65 °FMild.3 mph45%29.97 "HgN/A
2:00 PM68 °FScattered clouds.6 mph46%29.98 "Hg19 mi
1:00 PM67 °FMild.5 mph50%29.99 "HgN/A
12:00 PM63 °FMild.6 mph56%30.01 "HgN/A
11:00 AM63 °FPassing clouds.5 mph65%30.02 "Hg10 mi
10:00 AM60 °FCool.3 mph81%30.03 "HgN/A
9:00 AM58 °FCool.1 mph88%30.03 "HgN/A
8:00 AM54 °FFog.1 mph95%30.04 "Hg4 mi
7:00 AM51 °FCool.2 mph97%30.04 "HgN/A
6:00 AM53 °FCool.2 mph96%30.03 "HgN/A
5:00 AM56 °FOvercast.2 mph94%30.03 "Hg9 mi
4:00 AM56 °FCool.2 mph91%30.03 "HgN/A
3:00 AM57 °FCool.2 mph87%30.02 "HgN/A
2:00 AM57 °FOvercast.2 mph85%30.03 "Hg16 mi
1:00 AM57 °FCool.6 mph85%30.02 "HgN/A
12:00 AM58 °FCool.5 mph88%30.02 "HgN/A
10:00 PM
Thu, Sep 3
60 °FCool.5 mph78%29.99 "HgN/A
9:00 PM60 °FCool.5 mph80%29.98 "HgN/A
Weather by CustomWeather, © 2015

See weather overviewHow to use our weather pages